This is the latest recevied weather packets stored in our database for station/object W7BL. If no packets are shown the sender has not sent any weather packets the latest 10 day(s).
| Time | Temp. | Humidity | Pressure | Rain* | Wind** | Luminosity | Snow |
|---|---|---|---|---|---|---|---|
| 1778178885 | 19.44° C | 40% | - | 0 mm | - | - | - |
| 1778178582 | 18.89° C | 44% | - | 0 mm | - | - | - |
| 1778178278 | 18.89° C | 40% | - | 0 mm | - | - | - |
| 1778177974 | 18.33° C | 40% | - | 0 mm | - | - | - |
| 1778177670 | 18.89° C | 42% | - | 0 mm | - | - | - |
| 1778177367 | 18.89° C | 40% | - | 0 mm | - | - | - |
| 1778177064 | 18.89° C | 40% | - | 0 mm | - | - | - |
| 1778176760 | 18.89° C | 40% | - | 0 mm | - | - | - |
| 1778176457 | 18.89° C | 41% | - | 0 mm | - | - | - |
| 1778176154 | 18.89° C | 41% | - | 0 mm | - | - | - |
| 1778175852 | 18.33° C | 42% | - | 0 mm | - | - | - |
| 1778175549 | 18.33° C | 41% | - | 0 mm | - | - | - |
| 1778175246 | 18.33° C | 41% | - | 0 mm | - | - | - |
| 1778174942 | 18.33° C | 40% | - | 0 mm | - | - | - |
| 1778174639 | 17.78° C | 41% | - | 0 mm | - | - | - |
| 1778174335 | 18.33° C | 41% | - | 0 mm | - | - | - |
| 1778174032 | 18.33° C | 41% | - | 0 mm | - | - | - |
| 1778173729 | 17.78° C | 42% | - | 0 mm | - | - | - |
| 1778173425 | 17.78° C | 41% | - | 0 mm | - | - | - |
| 1778173122 | 17.78° C | 42% | - | 0 mm | - | - | - |
| 1778172817 | 16.67° C | 43% | - | 0 mm | - | - | - |
| 1778172514 | 17.22° C | 42% | - | 0 mm | - | - | - |
| 1778172211 | 17.22° C | 42% | - | 0 mm | - | - | - |
| 1778171908 | 16.67° C | 44% | - | 0 mm | - | - | - |
| 1778171605 | 16.67° C | 44% | - | 0 mm | - | - | - |
* Rain latest hour (hover to see other rain measurements)
** Current wind speed in m/s (hover to see current wind gust speed)